カタログに戻る

OPS 6393

FLTSATCOM 3

運用中軍事GEO
NORAD 11669·PAYLOAD·🇺🇸 United States

打ち上げ Jan 18, 1980 から Cape Canaveral Space Force Station

Loading…

TLE

最新Source: Space-Track

元期: Sep 14, 2026, 13:30 UTC

1 11669U 80004A   26257.56308512  .00000050  00000-0  00000-0 0  9992
2 11669   5.9948 306.5595 0023420 249.0976 232.2034  1.00167805170755

AllMySatでOPS 6393をリアルタイム追跡

Download on the App Store